Location: Greenwich
(51.4790°N, 0.0090°E)
Time: 10:28:33
(UTC+00:00)

Envisat - Visible Passes

Search period start: 28 February 2024 00:00
Search period end: 09 March 2024 00:00
Orbit: 762 x 764 km, 98.3° (Epoch: 27 February)

Date Brightness Start Highest point End Pass type
(mag) Time Alt. Az. Time Alt. Az. Time Alt. Az.
28 Feb 3.8 03:17:27 10° NNE 03:21:26 47° ENE 03:21:26 47° ENE visible
28 Feb 4.0 04:56:58 10° N 05:01:09 26° WNW 05:01:37 26° WNW visible
29 Feb 4.9 02:40:32 10° NNE 02:43:51 26° ENE 02:43:51 26° ENE visible
29 Feb 3.2 04:19:15 10° N 04:24:01 48° WNW 04:24:01 48° WNW visible
29 Feb 5.0 06:01:18 10° NW 06:01:57 10° NW 06:02:37 10° NW visible
01 Mar 5.6 02:04:23 10° NE 02:06:15 14° ENE 02:06:15 14° ENE visible
01 Mar 3.0 03:41:48 10° NNE 03:46:26 74° NNE 03:46:26 74° NNE visible
01 Mar 4.5 05:21:52 10° NNW 05:25:16 18° NW 05:26:36 17° WNW visible
02 Mar 4.0 03:04:38 10° NNE 03:08:50 42° ENE 03:08:50 42° ENE visible
02 Mar 3.7 04:43:53 10° N 04:48:22 32° WNW 04:49:00 31° WNW visible
03 Mar 5.1 02:27:53 10° NE 02:31:14 22° E 02:31:14 22° E visible
03 Mar 3.0 04:06:16 10° N 04:11:17 60° WNW 04:11:25 60° WNW visible
03 Mar 4.9 05:47:11 10° NNW 05:49:17 13° NW 05:51:23 10° WNW visible
04 Mar 5.8 01:52:30 10° ENE 01:53:39 11° ENE 01:53:39 11° ENE visible
04 Mar 3.1 03:28:54 10° NNE 03:33:49 70° E 03:33:49 70° E visible
04 Mar 4.3 05:08:41 10° N 05:12:31 22° WNW 05:14:00 19° W visible
05 Mar 4.3 02:51:51 10° NNE 02:56:14 35° E 02:56:14 35° E visible
05 Mar 3.5 04:30:51 10° N 04:35:33 39° WNW 04:36:24 36° W visible
06 Mar 5.3 02:15:21 10° NE 02:18:38 18° E 02:18:38 18° E visible
06 Mar 2.8 03:53:18 10° NNE 03:58:24 76° WNW 03:58:48 71° WSW visible
06 Mar 4.7 05:33:44 10° NNW 05:36:35 15° NW 05:38:59 11° W visible
07 Mar 3.4 03:16:03 10° NNE 03:21:04 56° E 03:21:13 56° ESE visible
07 Mar 4.0 04:55:33 10° N 04:59:44 27° WNW 05:01:23 22° W visible
08 Mar 4.6 02:39:07 10° NE 02:43:31 28° E 02:43:38 28° E visible
08 Mar 3.2 04:17:49 10° N 04:22:43 49° WNW 04:23:48 42° WSW visible
